• In United Kingdom
  • List of Countries
  • For 7 days
  • Water Temperature
  • Satellite Maps
  • Weather Map
  • Weather Widgets
  • user-avatar
    Login

    Hourly Weather Kitzbuhel

    Today, 23 July, Sunday

    Time Temperature Precipitation Wind Pressure Humidity
    00:00 +16°C° 0.4 mm 1 mps 678 mmHg 91%
    01:00 +16°C° 0.4 mm 1 mps 678 mmHg 91%
    02:00 +16°C° 0.5 mm 1 mps 678 mmHg 92%
    03:00 +16°C° 0.5 mm 1 mps 678 mmHg 93%
    04:00 +15°C° 0.5 mm 1 mps 678 mmHg 94%
    05:00 +16°C° 0.2 mm 1 mps 678 mmHg 92%
    06:00 +18°C° 0.2 mm 1 mps 679 mmHg 91%
    07:00 +17°C° 0.2 mm 0 mps 679 mmHg 89%
    08:00 +20°C° 0.2 mm 1 mps 679 mmHg 81%
    09:00 +22°C° 0.2 mm 1 mps 679 mmHg 73%
    10:00 +23°C° 0.2 mm 1 mps 680 mmHg 65%
    11:00 +23°C° 0.5 mm 1 mps 680 mmHg 71%
    12:00 +21°C° 0.5 mm 2 mps 679 mmHg 76%
    13:00 +20°C° 0.5 mm 2 mps 679 mmHg 82%
    14:00 +20°C° 0.7 mm 2 mps 679 mmHg 85%
    15:00 +19°C° 0.7 mm 2 mps 679 mmHg 89%
    16:00 +19°C° 0.7 mm 1 mps 678 mmHg 93%
    17:00 +19°C° 0.8 mm 1 mps 678 mmHg 94%
    18:00 +18°C° 0.8 mm 1 mps 678 mmHg 95%
    19:00 +18°C° 0.8 mm 1 mps 678 mmHg 97%
    20:00 +18°C° 0.7 mm 1 mps 678 mmHg 97%
    21:00 +16°C° 0.7 mm 1 mps 678 mmHg 97%
    22:00 +16°C° 0.7 mm 1 mps 678 mmHg 98%
    23:00 +15°C° 0.2 mm 1 mps 678 mmHg 97%

    Tomorrow, 24 July, Monday

    Time Temperature Precipitation Wind Pressure Humidity
    00:00 +15°C° 0.2 mm 1 mps 677 mmHg 97%
    01:00 +15°C° 0.2 mm 1 mps 677 mmHg 97%
    02:00 +15°C° 0.9 mm 1 mps 676 mmHg 97%
    03:00 +14°C° 0.9 mm 0 mps 676 mmHg 97%
    04:00 +14°C° 0.9 mm 0 mps 675 mmHg 97%
    05:00 +14°C° 1.2 mm 0 mps 675 mmHg 97%
    06:00 +14°C° 1.2 mm 0 mps 675 mmHg 97%
    07:00 +15°C° 1.2 mm 0 mps 674 mmHg 96%
    08:00 +16°C° 0.8 mm 1 mps 674 mmHg 95%
    09:00 +18°C° 0.8 mm 1 mps 674 mmHg 94%
    10:00 +18°C° 0.8 mm 1 mps 673 mmHg 92%
    11:00 +18°C° 1.6 mm 1 mps 673 mmHg 93%
    12:00 +16°C° 1.6 mm 1 mps 673 mmHg 94%
    13:00 +16°C° 1.6 mm 1 mps 672 mmHg 94%
    14:00 +15°C° 2.7 mm 2 mps 672 mmHg 95%
    15:00 +14°C° 2.7 mm 2 mps 672 mmHg 96%
    16:00 +12°C° 2.7 mm 3 mps 672 mmHg 97%
    17:00 +12°C° 1.6 mm 3 mps 672 mmHg 97%
    18:00 +12°C° 1.6 mm 2 mps 672 mmHg 97%
    19:00 +12°C° 1.6 mm 2 mps 673 mmHg 97%
    20:00 +12°C° 0.2 mm 2 mps 673 mmHg 96%
    21:00 +10°C° 0.2 mm 2 mps 673 mmHg 95%
    22:00 +10°C° 0.2 mm 2 mps 673 mmHg 94%
    23:00 +9°C° 0 mm 2 mps 673 mmHg 94%

    Day after tomorrow, 25 July, Tuesday

    Time Temperature Precipitation Wind Pressure Humidity
    00:00 +9°C° 0 mm 2 mps 672 mmHg 94%
    01:00 +8°C° 0 mm 2 mps 672 mmHg 94%
    02:00 +8°C° 0 mm 2 mps 672 mmHg 94%
    03:00 +7°C° 0 mm 2 mps 672 mmHg 94%
    04:00 +7°C° 0 mm 2 mps 671 mmHg 94%
    05:00 +8°C° 0 mm 2 mps 672 mmHg 91%
    06:00 +9°C° 0 mm 2 mps 672 mmHg 89%
    07:00 +10°C° 0 mm 2 mps 672 mmHg 86%
    08:00 +13°C° 0 mm 2 mps 672 mmHg 77%
    09:00 +14°C° 0 mm 2 mps 672 mmHg 69%
    10:00 +16°C° 0 mm 2 mps 672 mmHg 60%
    11:00 +16°C° 0.1 mm 2 mps 672 mmHg 59%
    12:00 +17°C° 0.1 mm 2 mps 672 mmHg 59%
    13:00 +17°C° 0.1 mm 2 mps 671 mmHg 58%
    14:00 +17°C° 0.3 mm 2 mps 671 mmHg 62%
    15:00 +17°C° 0.3 mm 2 mps 671 mmHg 65%
    16:00 +16°C° 0.3 mm 3 mps 671 mmHg 69%
    17:00 +15°C° 0.5 mm 2 mps 671 mmHg 76%
    18:00 +14°C° 0.5 mm 2 mps 671 mmHg 84%
    19:00 +13°C° 0.5 mm 1 mps 671 mmHg 91%
    20:00 +12°C° 0.1 mm 1 mps 671 mmHg 93%
    21:00 +11°C° 0.1 mm 1 mps 671 mmHg 94%
    22:00 +10°C° 0.1 mm 1 mps 671 mmHg 96%
    23:00 +10°C° 0 mm 1 mps 671 mmHg 96%

    26 July, Wednesday

    Time Temperature Precipitation Wind Pressure Humidity
    00:00 +9°C° 0 mm 1 mps 671 mmHg 96%
    01:00 +9°C° 0 mm 1 mps 671 mmHg 96%
    02:00 +9°C° 0 mm 1 mps 671 mmHg 96%
    03:00 +9°C° 0 mm 1 mps 671 mmHg 96%
    04:00 +9°C° 0 mm 1 mps 671 mmHg 97%
    05:00 +9°C° 0.1 mm 2 mps 671 mmHg 95%
    06:00 +9°C° 0.1 mm 2 mps 671 mmHg 94%
    07:00 +10°C° 0.1 mm 2 mps 672 mmHg 92%
    08:00 +12°C° 0.1 mm 2 mps 672 mmHg 85%
    09:00 +14°C° 0.1 mm 2 mps 672 mmHg 77%
    10:00 +15°C° 0.1 mm 2 mps 673 mmHg 69%
    11:00 +16°C° 0.2 mm 2 mps 673 mmHg 69%
    12:00 +16°C° 0.2 mm 3 mps 673 mmHg 69%
    13:00 +16°C° 0.2 mm 3 mps 673 mmHg 69%
    14:00 +16°C° 0.4 mm 3 mps 673 mmHg 73%
    15:00 +14°C° 0.4 mm 3 mps 673 mmHg 77%
    16:00 +14°C° 0.4 mm 3 mps 673 mmHg 81%
    17:00 +14°C° 1.1 mm 2 mps 674 mmHg 86%
    18:00 +13°C° 1.1 mm 2 mps 674 mmHg 91%
    19:00 +12°C° 1.1 mm 2 mps 674 mmHg 95%
    20:00 +12°C° 1.3 mm 2 mps 674 mmHg 96%
    21:00 +10°C° 1.3 mm 2 mps 675 mmHg 96%
    22:00 +10°C° 1.3 mm 2 mps 675 mmHg 97%
    23:00 +10°C° 0.8 mm 2 mps 675 mmHg 97%

    27 July, Thursday

    Time Temperature Precipitation Wind Pressure Humidity
    00:00 +10°C° 0.8 mm 2 mps 676 mmHg 97%
    01:00 +10°C° 0.8 mm 2 mps 676 mmHg 97%
    02:00 +9°C° 0.1 mm 2 mps 676 mmHg 97%
    03:00 +9°C° 0.1 mm 2 mps 676 mmHg 96%
    04:00 +9°C° 0.1 mm 2 mps 676 mmHg 96%
    05:00 +10°C° 0.2 mm 2 mps 676 mmHg 95%
    06:00 +10°C° 0.2 mm 2 mps 676 mmHg 94%
    07:00 +12°C° 0.2 mm 2 mps 677 mmHg 93%
    08:00 +14°C° 0.1 mm 1 mps 677 mmHg 86%
    09:00 +16°C° 0.1 mm 1 mps 678 mmHg 79%
    10:00 +19°C° 0.1 mm 1 mps 678 mmHg 72%
    11:00 +20°C° 0 mm 1 mps 678 mmHg 67%
    12:00 +21°C° 0 mm 1 mps 678 mmHg 62%
    13:00 +21°C° 0 mm 2 mps 678 mmHg 57%
    14:00 +21°C° 0 mm 2 mps 678 mmHg 57%
    15:00 +22°C° 0 mm 1 mps 678 mmHg 58%
    16:00 +22°C° 0 mm 1 mps 678 mmHg 58%
    17:00 +21°C° 0 mm 1 mps 678 mmHg 66%
    18:00 +20°C° 0 mm 1 mps 678 mmHg 73%
    19:00 +19°C° 0 mm 1 mps 677 mmHg 81%
    20:00 +16°C° 0 mm 1 mps 677 mmHg 85%
    21:00 +14°C° 0 mm 1 mps 677 mmHg 89%
    22:00 +13°C° 0 mm 1 mps 678 mmHg 93%
    23:00 +13°C° 0 mm 1 mps 678 mmHg 93%

    28 July, Friday

    Time Temperature Precipitation Wind Pressure Humidity
    00:00 +12°C° 0 mm 1 mps 678 mmHg 92%
    01:00 +12°C° 0 mm 1 mps 677 mmHg 92%
    02:00 +12°C° 0 mm 1 mps 677 mmHg 91%
    03:00 +12°C° 0 mm 1 mps 677 mmHg 90%
    04:00 +12°C° 0 mm 1 mps 677 mmHg 89%
    05:00 +13°C° 0 mm 1 mps 678 mmHg 83%
    06:00 +15°C° 0 mm 1 mps 678 mmHg 78%
    07:00 +18°C° 0 mm 1 mps 679 mmHg 72%
    08:00 +20°C° 0 mm 1 mps 679 mmHg 64%
    09:00 +22°C° 0 mm 1 mps 680 mmHg 55%
    10:00 +25°C° 0 mm 1 mps 680 mmHg 47%
    11:00 +25°C° 0 mm 1 mps 680 mmHg 45%
    12:00 +26°C° 0 mm 1 mps 680 mmHg 44%
    13:00 +27°C° 0 mm 2 mps 680 mmHg 42%
    14:00 +27°C° 0 mm 2 mps 680 mmHg 46%
    15:00 +26°C° 0 mm 2 mps 680 mmHg 49%
    16:00 +26°C° 0 mm 2 mps 679 mmHg 52%
    17:00 +24°C° 0.4 mm 1 mps 679 mmHg 63%
    18:00 +22°C° 0.4 mm 1 mps 679 mmHg 75%
    19:00 +21°C° 0.4 mm 1 mps 679 mmHg 87%
    20:00 +19°C° 0.4 mm 1 mps 679 mmHg 90%
    21:00 +18°C° 0.4 mm 1 mps 680 mmHg 93%
    22:00 +16°C° 0.4 mm 1 mps 680 mmHg 95%
    23:00 +16°C° 0.1 mm 1 mps 680 mmHg 96%
    Show more